Regional Weather Roundup
Issued by NWS

Home | Current Version | Previous Version | Text Only | Print | Product List | Glossary On
Versions: 1 2 3 4 5 6 7 8 9 10 11 12 13 14 15 16 17 18 19 20 21 22 23 24 25 26 27 28 29 30 31 32 33 34 35 36 37 38 39 40 41 42 43 44 45 46 47 48 49 50
000
ASUS43 KLSX 230007
RWRMO

WEATHER SUMMARY FOR MISSOURI
NATIONAL WEATHER SERVICE SPRINGFIELD MO
700 PM CDT FRI AUG 22 2014

NOTE: "FAIR" INDICATES FEW OR NO CLOUDS BELOW 12,000 FEET WITH NO
       SIGNIFICANT WEATHER AND/OR OBSTRUCTIONS TO VISIBILITY.
       CURRENT SKY AND/OR WEATHER CONDITIONS ARE NOT AVAILABLE FOR
       CHILLICOTHE AND FARMINGTON.

MOZ001>031-035>038-043-044-053-054-230100-
...NORTHERN AND WESTERN MISSOURI...

CITY           SKY/WX    TMP DP  RH WIND       PRES   REMARKS
KANSAS CTY INT PTSUNNY   89  76  65 SE8       29.90F HX 100
6HR MIN TEMP:  87; 6HR MAX TEMP:  94;

KANSAS C DTWN  CLOUDY    92  75  57 SE8       29.88F HX 103
6HR MIN TEMP:  91; 6HR MAX TEMP:  94;

LEE`S SUMMIT   PTSUNNY   88  77  69 S5        29.92S HX 100
6HR MIN TEMP:  87; 6HR MAX TEMP:  93;

ST JOSEPH      PTSUNNY   84  78  82 SE6       29.88F HX  95
6HR MIN TEMP:  81; 6HR MAX TEMP:  89;

CHILLICOTHE      N/A     87  77  72 CALM      29.91F HX  99
6HR MIN TEMP:  86; 6HR MAX TEMP:  91;

KIRKSVILLE     CLOUDY    86  78  77 CALM      29.94S HX  98
6HR MIN TEMP:  83; 6HR MAX TEMP:  89;


$$
MOZ066>068-077>081-088>096-101>105-230100-
...SOUTHWEST MISSOURI...

CITY           SKY/WX    TMP DP  RH WIND       PRES   REMARKS
SPRINGFIELD    MOSUNNY   94  66  39 SW8       29.96R HX  97
6HR MIN TEMP:  94; 6HR MAX TEMP: 100;

JOPLIN         SUNNY     94  68  42 SW12      29.94F HX  98
6HR MIN TEMP:  94; 6HR MAX TEMP:  99;


$$
MOZ032>034-039>042-045>050-055>058-069>072-230100-
...CENTRAL MISSOURI...

CITY           SKY/WX    TMP DP  RH WIND       PRES   REMARKS
COLUMBIA       MOCLDY    93  77  59 CALM      29.92S HX 107
6HR MIN TEMP:  90; 6HR MAX TEMP:  93;

JEFFERSON CITY MOCLDY    93  76  57 E5        29.89F HX 105
6HR MIN TEMP:  89; 6HR MAX TEMP:  97;

ROLLA          MOCLDY    89  71  55 S6        29.93S HX  95
6HR MIN TEMP:  89; 6HR MAX TEMP:  96;

SEDALIA        MOSUNNY   90  76  63 SW3       29.93S HX 101
6HR MIN TEMP:  90; 6HR MAX TEMP:  95;

WHITEMAN AFB   PTSUNNY   89  65  45 NW3       29.91S HX  91
OSAGE BEACH    PTCLDY    93  73  52 SE3       29.91F HX 102

$$
MOZ051-052-059>065-230100-
...EAST CENTRAL MISSOURI...

CITY           SKY/WX    TMP DP  RH WIND       PRES   REMARKS
ST LOUIS INTL  MOCLDY    91  76  61 S6        29.92F HX 103
6HR MIN TEMP:  91; 6HR MAX TEMP:  95;

SPIRIT OF STL  MOCLDY    89  78  70 CALM      29.90F HX 103
6HR MIN TEMP:  88; 6HR MAX TEMP:  93;

ST CHARLES     MOCLDY    88  79  74 S5        29.90S HX 103
6HR MIN TEMP:  88; 6HR MAX TEMP:  93;


$$
MOZ072>076-082>087-097>100-106>115-230100-
...SOUTH CENTRAL AND SOUTHEAST MISSOURI...

CITY           SKY/WX    TMP DP  RH WIND       PRES   REMARKS
CAPE GIRARDEAU PTCLDY    86  77  74 S6        29.94F HX  97
6HR MIN TEMP:  86; 6HR MAX TEMP:  93;

FARMINGTON     PTCLDY    90  73  58 S5        29.97S HX  98
6HR MIN TEMP:  90; 6HR MAX TEMP:  93;

POPLAR BLUFF   MOCLDY    88  75  65 S3        29.93F HX  97
6HR MIN TEMP:  88; 6HR MAX TEMP:  94;

WEST PLAINS    MOCLDY    89  68  49 S5        29.98F HX  93
6HR MIN TEMP:  89; 6HR MAX TEMP:  95;


$$


USA.gov is the U.S. government's official web portal to all federal, state and local government web resources and services.